Regional Weather Roundup
Issued by NWS Cleveland, OH

Home | Current Version | Previous Version | Graphics & Text | Print | Product List | Glossary On
Versions: 1 2 3 4 5 6 7 8 9 10 11 12 13 14 15 16 17 18 19 20 21 22 23 24 25 26 27 28 29 30 31 32 33 34 35 36 37 38 39 40 41 42 43 44 45 46 47 48 49 50
000
ASUS41 KCLE 190512
RWRCLE
OHIO REGIONAL WEATHER ROUNDUP
NATIONAL WEATHER SERVICE WILMINGTON, OH
1200 AM EST THU JAN 19 2017

NOTE: "FAIR" INDICATES FEW OR NO CLOUDS BELOW 12,000 FEET WITH NO
SIGNIFICANT WEATHER AND/OR OBSTRUCTIONS TO VISIBILITY.

OHZ001>008-015>018-024>027-034-035-043-044-190600-
   NORTHWEST OHIO

CITY           SKY/WX    TMP DP  RH WIND       PRES   REMARKS
DEFIANCE       CLOUDY    34  32  92 SW7       30.10S WCI  28
FINDLAY        CLOUDY    37  33  85 SW10      30.09F FOG
TOLEDO EXPRESS CLOUDY    34  34 100 W12       30.08F WCI  25
TOLEDO EXEC    CLOUDY    36  35  96 W13       30.10S
LIMA           CLOUDY    36  36 100 SW10      30.10R FOG
$$

OHZ009>014-019>023-028>033-038-089-190600-
   NORTHEAST OHIO

CITY           SKY/WX    TMP DP  RH WIND       PRES   REMARKS
CLE-HOPKINS    DRIZZLE   38  34  85 SW12G21   30.11F
CLE-LAKEFRONT  CLOUDY    38  35  89 SW13      30.09S
CUY CO. ARPT   NOT AVBL
LORAIN-ELYRIA  CLOUDY    36  32  85 SW8       30.09F
ASHTABULA      CLOUDY    37  36  96 SW12G17   30.07F
AKRON-CANTON   CLOUDY    37  33  85 W14       30.08F FOG
WOOSTER        CLOUDY    36  34  92 W8        30.09F
MANSFIELD      CLOUDY    35  35 100 SW12      30.09F FOG     WCI  27
YOUNGSTOWN     DRIZZLE   37  35  92 SW10      30.07F
$$

OHZ042-051>053-060>062-070>072-077>081-190600-
  SOUTHWEST OHIO

CITY           SKY/WX    TMP DP  RH WIND       PRES   REMARKS
CINC-COVINGTON CLOUDY    39  37  92 SE5       30.11F
CINC-LUNKEN    CLOUDY    41  38  89 S3        30.14F
HAMILTON       CLOUDY    40  37  89 CALM      30.13F
DAYTON         DRZL/FOG  37  36  96 SW8       30.12S VSB 1/4
WRIGHT-PAT AFB CLOUDY    38  38  99 SW5       30.12R
DAYTON GENERAL CLOUDY    38  36  92 SW7       30.11F
WILMINGTON     CLOUDY    38  36  92 SW7       30.12S
$$

OHZ036-037-039>041-045>050-054>059-063>069-073>076-082>088-190600-
  CENTRAL AND SOUTHEAST OHIO

CITY           SKY/WX    TMP DP  RH WIND       PRES   REMARKS
COLUMBUS       CLOUDY    40  36  86 W7        30.12S
OSU AIRPORT    CLOUDY    38  37  97 SW7       30.12R
BOLTON FIELD   CLOUDY    38  37  94 W7        30.13R
RICKENBACK AFB   N/A     38  36  91 SW6       30.13R
NEWARK         CLOUDY    39  36  89 SW6       30.11F
MARION         CLOUDY    37  35  92 W7        30.11F FOG
LANCASTER      CLOUDY    40  36  86 W7        30.12S
ZANESVILLE     CLOUDY    39  35  86 W9        30.12S
NEW PHILLY     CLOUDY    38  36  92 W3        30.12F
$$



USA.gov is the U.S. government's official web portal to all federal, state and local government web resources and services.